Regional Weather Roundup
Issued by NWS

Home | Current Version | Previous Version | Text Only | Print | Product List | Glossary Off
Versions: 1 2 3 4 5 6 7 8 9 10 11 12 13 14 15 16 17 18 19 20 21 22 23 24 25 26 27 28 29 30 31 32 33 34 35 36 37 38 39 40 41 42 43 44 45 46 47 48 49 50

902
ASUS45 KCYS 250510
RWRWY

WYOMING REGIONAL WEATHER ROUNDUP
NATIONAL WEATHER SERVICE CHEYENNE WY
1100 PM MDT WED AUG 24 2016

NOTE:  "FAIR" INDICATES FEW OR NO CLOUDS BELOW 12,000 FEET
WITH NO SIGNIFICANT WEATHER AND/OR OBSTRUCTIONS TO VISIBILITY.

WYZ001-250600-
YELLOWSTONE NATIONAL PARK

CITY           SKY/WX    TMP DP  RH WIND       PRES   REMARKS
LK YELLOWSTONE   N/A     33  33 100 NW3       30.42S
W YELLOWSTONE  NOT AVBL

$$
WYZ002>013-054>058-071-098>099-250600-
NORTHERN WYOMING

CITY           SKY/WX    TMP DP  RH WIND       PRES   REMARKS
JACKSON        FAIR      52  34  50 N10       30.29S
CODY           MOCLDY    52  43  71 N6        30.37S
GREYBULL       MOCLDY    60  39  45 NW20      30.27S
WORLAND        LGT RAIN  54  49  83 N8        30.30R
SHERIDAN       CLOUDY    57  40  52 NW13      30.33R
BUFFALO        CLOUDY    54  40  59 N15G26    30.35R
GILLETTE       CLOUDY    56  41  57 N10       30.30R
HULETT         FAIR      54  41  62 N12G20    30.30S
NEWCASTLE      MOCLDY    61  37  41 N8G17     30.26R

$$
WYZ014>020-022>026-101>103-250600-
CENTRAL WYOMING

CITY           SKY/WX    TMP DP  RH WIND       PRES   REMARKS
BIG PINEY      FAIR      48  17  29 N9        30.29R HAZE
PINEDALE       FAIR      52  30  43 NW3       30.29S
DUBOIS         CLOUDY    48  34  57 SE5       30.36R
LANDER         CLOUDY    53  42  66 E8        30.34R
RIVERTON       CLOUDY    51  44  77 NE12      30.32S
CASPER         CLOUDY    55  43  63 N15G26    30.30R
DOUGLAS        MOCLDY    61  39  44 NE18G24   30.27S

$$
WYZ021-027>030-104>119-250600-
SOUTHERN WYOMING

CITY           SKY/WX    TMP DP  RH WIND       PRES   REMARKS
EVANSTON       FAIR      55  15  20 SE5       30.28S
FORT BRIDGER   FAIR      56  16  21 W9        30.30S
ROCK SPRINGS   NOT AVBL
DIXON          FAIR      55  30  38 NE6       30.21S
RAWLINS        FAIR      56  42  59 NE20G29   30.26R
SARATOGA       FAIR      54  41  62 S14       30.26R
LARAMIE        FAIR      46  40  79 S9        30.28F
CHEYENNE       FAIR      53  46  77 S6        30.28F
TORRINGTON     MOCLDY    55  48  77 W7        30.22R
PINE BLUFFS    FAIR      52  43  71 CALM      30.25F

$$




USA.gov is the U.S. government's official web portal to all federal, state and local government web resources and services.